Regional Weather Roundup
Issued by NWS

Home | Current Version | Previous Version | Graphics & Text | Print | Product List | Glossary On
Versions: 1 2 3 4 5 6 7 8 9 10 11 12 13 14 15 16 17 18 19 20 21 22 23 24 25 26 27 28 29 30 31 32 33 34 35 36 37 38 39 40 41 42 43 44 45 46 47 48 49 50
000
ASUS43 KMKX 061059
RWRWI

WISCONSIN REGIONAL WEATHER ROUNDUP
NATIONAL WEATHER SERVICE MILWAUKEE/SULLIVAN WI
500 AM CST FRI MAR 06 2015

NOTE: "FAIR" INDICATES FEW OR NO CLOUDS BELOW 12,000 FEET WITH NO
SIGNIFICANT WEATHER AND/OR OBSTRUCTIONS TO VISIBILITY.

WIZ001-002-006>008-014>016-023>028-061200-
NORTHWEST WISCONSIN

CITY           SKY/WX    TMP DP  RH WIND       PRES   REMARKS
SUPERIOR ARPT  CLOUDY    10   2  70 SW13      30.05F WCI  -5
ASHLAND        MOCLDY     8  -1  66 SW18G25   30.05F WCI -11
HAYWARD        CLOUDY     9  -1  64 S10       30.07F WCI  -5
SIREN          CLOUDY    14   2  59 SW12G18   30.08F WCI   0
CUMBERLAND     MOCLDY     5   0  78 S9        30.10F WCI  -9
RICE LAKE      CLOUDY     5  -1  74 SE7       30.14F WCI  -7
CHETEK         CLOUDY     3  -2  79 SE7       30.14F WCI  -9
LADYSMITH      CLOUDY     3  -2  78 S7        30.15F WCI  -9
EAU CLAIRE     NOT AVBL
MENOMONIE      CLOUDY    10   0  64 S7        30.17F WCI  -1
NEW RICHMOND   CLEAR     11   1  64 S8        30.12F WCI  -1
OSCEOLA        CLEAR     11   1  66 S9        30.14F WCI  -2
$$

WIZ003>005-009-010-017-018-061200-
NORTH CENTRAL WISCONSIN

CITY           SKY/WX    TMP DP  RH WIND       PRES   REMARKS
MANITOWISH WTR CLEAR     -1  -5  82 S7        30.07F WCI -14
ARBOR VITAE    PTCLDY    -1  -6  80 S7        30.10F WCI -15
WOODRUFF       PTCLDY    -1  -6  80 S7        30.10F WCI -15
RHINELANDER    PTCLDY     1  -5  75 SW13      30.11F WCI -17
EAGLE RIVER    PTCLDY    -1  -8  74 SW6       30.10F WCI -13
LAND O LAKES   CLEAR     -3  -7  82 SW5       30.09F WCI -13
PHILLIPS       MOCLDY    -2  -6  82 S6        30.10F WCI -14
TOMAHAWK       PTCLDY    -3  -8  82 CALM      30.15F
MEDFORD        PTCLDY     1  -5  75 S9        30.15F WCI -14
MERRILL        PTCLDY    -7 -11  82 CALM      30.18F
$$

WIZ029-030-035-036-043>047-061200-
CENTRAL WISCONSIN

CITY           SKY/WX    TMP DP  RH WIND       PRES   REMARKS
WAUSAU         MOCLDY    -2  -6  83 CALM      30.20F
MOSINEE        MOCLDY    -6  -9  84 S8        30.22F WCI -21
MARSHFIELD     PTCLDY    -3  -9  75 S9        30.20F WCI -19
STEVENS POINT  MOCLDY    -4  -9  79 S6        30.25F WCI -16
WAUPACA        MOCLDY     0  -7  72 S5        30.30F WCI -10
WAUTOMA        NOT AVBL
WISC RAPIDS    MOCLDY    -2  -9  72 S7        30.26F WCI -15
CAMP DOUGLAS   NOT AVBL
$$

WIZ011>013-019>022-031-037>040-048>050-061200-
NORTHEAST WISCONSIN

CITY           SKY/WX    TMP DP  RH WIND       PRES   REMARKS
ANTIGO         PTCLDY    -2  -7  81 SW8       30.17F WCI -17
SHAWANO        MOCLDY     2  -6  69 CALM      30.29F
OCONTO         PTCLDY     0  -7  71 CALM      30.30F
STURGEON BAY   CLEAR      3  -8  60 SW10      30.30F WCI -12
GREEN BAY      PTCLDY     1  -6  72 SW8       30.31F WCI -13
MANITOWOC      NOT AVBL
APPLETON       NOT AVBL
CLINTONVILLE   MOCLDY     0  -8  71 S7        30.29F WCI -13
OSHKOSH        PTCLDY     2  -6  69 S10       30.32F WCI -14
$$

WIZ032>034-041-042-053>061-061200-
SOUTHWEST WISCONSIN

CITY           SKY/WX    TMP DP  RH WIND       PRES   REMARKS
LA CROSSE      CLOUDY     6  -3  66 S14       30.27F WCI -11
SPARTA         PTCLDY     4  -3  73 CALM      30.28F
VIROQUA        CLEAR      1  -4  78 S9        30.25F WCI -14
BOSCOBEL       PTCLDY   -10 -16  74 CALM      30.35F
PRAIRIE DU CHI PTCLDY    -1  -7  76 SE3       30.34F
PLATTEVILLE    PTCLDY    -1  -6  78 SE10      30.34F WCI -17
$$

WIZ056-057-062-063-064-067-068-061200-
SOUTH CENTRAL WISCONSIN

CITY           SKY/WX    TMP DP  RH WIND       PRES   REMARKS
REEDSBURG      PTCLDY     3  -4  72 S7        30.32S WCI -10
BARABOO/DELLS  PTCLDY     1  -6  72 CALM      30.31S
LONE ROCK      NOT AVBL
MINERAL POINT  PTCLDY     0  -8  71 S7        30.32F WCI -13
MADISON        PTCLDY     2  -6  69 S7        30.36S WCI -11
MIDDLETON      PTCLDY     3  -6  66 SW6       30.36S WCI  -8
WATERTOWN      PTCLDY    -2  -7  80 CALM      30.36F
MONROE         PTCLDY     1  -4  78 S14       30.34F WCI -17
JANESVILLE     MOCLDY     0  -8  71 CALM      30.40S
$$

WIZ051-052-058>065-066-070>072-061200-
SOUTHEAST WISCONSIN

CITY           SKY/WX    TMP DP  RH WIND       PRES   REMARKS
MILWAUKEE      PTCLDY     0  -9  65 SW9       30.40F WCI -15
WAUKESHA       PTCLDY    -2  -8  78 S5        30.39F WCI -12
MILWAUKEE/TIMM PTCLDY     1  -6  71 SW8       30.40F WCI -12
RACINE         PTCLDY    -2  -9  72 SW6       30.43F WCI -14
BURLINGTON     PTCLDY    -9 -12  86 SW5       30.40F WCI -20
KENOSHA        PTCLDY    -1  -7  75 SW7       30.42F WCI -14
FOND DU LAC    PTCLDY     4  -5  66 S10       30.33F WCI -11
SHEBOYGAN      PTCLDY     0  -8  69 SW6       30.35F WCI -12
WEST BEND      PTCLDY     3  -6  66 CALM      30.35F
JUNEAU         PTCLDY     0  -6  75 S9        30.36F WCI -15
$$

LSZ147-162-061200-
LAKE SUPERIOR

STATION/POSITION TIME  TEMP    WIND        PRES    WAVE
                       AIR SEA DIR/SP/G            HT/PER
                 (UTC) (F)     (DEG/KT/KT) (MB)    (FT/S)
DEVILS ISLAND    1000    8     180/  5/  6 1019.3F
PORT WING        1040   13     220/  8/ 16 1017.6F
SAXON HARBOR     1000   10     190/  9/ 16 1017.9F
$$

LMZ867-665-643>646-061200-
LAKE MICHIGAN

STATION/POSITION TIME  TEMP    WIND        PRES    WAVE
                       AIR SEA DIR/SP/G            HT/PER
                 (UTC) (F)     (DEG/KT/KT) (MB)    (FT/S)
NORTHPORT PIER   1000    7     230/  7/ 16 1025.7F
SISTER BAY       1043    6     230/ 13/ 18   N/A
KEWAUNEE LAKESHO 1000    4     230/  3/  8 1026.3F
SHEBOYGAN LAKESH 1000    6     210/ 10/ 11 1030.3F
PORT WASHINGTON  1000    4     240/  4/  6 1030.1
MILWAUKEE LAKESH 1000    5     230/ 10/ 13   N/A
KENOSHA   LAKESH 1000    2     210/  4/ 11 1030.5F
$$

TC  - TEMPERATURE IN CELSIUS
VSB - VISIBILITY IN STATUTE MILES
WCI - WIND CHILL INDEX
HX  - HEAT INDEX



USA.gov is the U.S. government's official web portal to all federal, state and local government web resources and services.